CST,Max TemperatureF,Mean TemperatureF,Min TemperatureF,Max Dew PointF,MeanDew PointF,Min DewpointF,Max Humidity, Mean Humidity, Min Humidity, Max Sea Level PressureIn, Mean Sea Level PressureIn, Min Sea Level PressureIn, Max VisibilityMiles, Mean VisibilityMiles, Min VisibilityMiles, Max Wind SpeedMPH, Mean Wind SpeedMPH, Max Gust SpeedMPH,PrecipitationIn, CloudCover, Events, WindDirDegrees
2013-2-1,0,-6,-12,-5,-13,-19,81,68,52,30.22,30.14,30.07,10,9,2,12,7,17,0.00,2,Snow,262
2013-2-2,10,2,-5,-4,-6,-9,87,71,47,30.09,30.03,29.94,10,9,3,9,2,,0.00,4,Snow,324
2013-2-3,12,5,-2,1,-1,-6,86,72,55,29.98,29.93,29.87,10,9,2,14,4,22,0.00,6,Snow,279
2013-2-4,14,6,-3,0,-5,-9,90,66,35,29.97,29.93,29.85,10,10,3,9,2,,0.00,2,,322
2013-2-5,21,9,-3,18,8,-7,91,81,67,30.06,29.82,29.67,10,8,1,13,5,21,0.00,7,Snow,259
2013-2-6,21,7,-7,20,7,-11,96,87,74,30.16,30.10,30.05,10,6,0,10,2,,0.01,6,Fog-Snow,127
2013-2-7,24,22,20,24,21,18,99,94,87,30.14,30.04,29.98,10,3,1,15,7,21,0.02,8,Snow,44
2013-2-8,23,10,-3,17,7,-6,93,76,51,30.34,30.29,30.15,10,10,5,13,6,20,0.01,1,,1
2013-2-9,23,8,-7,21,9,-11,95,88,83,30.34,30.19,30.04,10,8,0,14,4,18,0.00,6,Snow,170
2013-2-10,35,28,22,36,28,20,100,95,88,30.03,29.65,29.29,10,5,2,20,8,23,0.27,8,Rain,114
2013-2-11,33,28,23,33,25,17,99,86,74,29.92,29.57,29.27,10,8,1,21,11,34,0.02,8,Rain-Snow,261
2013-2-12,25,20,16,17,14,10,94,77,66,30.00,29.91,29.78,10,10,7,13,9,20,0.00,5,Snow,246
2013-2-13,34,22,11,26,20,10,96,83,64,29.78,29.68,29.61,10,8,2,7,2,,0.00,7,,241
2013-2-14,29,22,15,28,22,6,99,84,64,30.02,29.73,29.53,10,6,1,16,7,23,0.07,8,Snow,338
2013-2-15,17,10,0,6,2,-5,81,67,56,30.16,30.12,30.02,10,10,3,14,5,21,0.00,3,,278
2013-2-16,13,2,-9,-2,-6,-15,85,67,44,30.16,30.13,30.09,10,10,10,9,3,,0.00,3,,297
2013-2-17,19,0,-18,10,-7,-24,81,63,43,30.15,30.05,29.86,10,9,7,12,3,16,0.00,1,,143
2013-2-18,36,27,18,30,21,9,100,77,65,29.85,29.58,29.45,10,9,2,15,8,24,0.01,3,Rain-Snow,173
2013-2-19,21,11,1,19,1,-8,91,71,53,30.13,29.80,29.49,10,6,1,20,14,30,0.00,6,Snow,289
2013-2-20,22,11,0,4,0,-7,81,63,46,30.37,30.28,30.14,10,10,7,15,8,23,0.00,0,,329
2013-2-21,20,7,-6,17,5,-11,92,82,68,30.42,30.31,30.10,10,10,4,21,4,29,0.00,4,Snow,66
2013-2-22,27,23,19,24,21,16,99,91,83,30.09,29.86,29.77,10,3,1,16,10,28,0.04,8,Snow,76
2013-2-23,27,24,21,22,19,17,95,84,69,29.88,29.80,29.76,10,8,2,12,6,17,0.02,8,Snow,263
2013-2-24,31,22,11,21,19,10,96,80,62,30.10,30.02,29.89,10,8,1,8,4,,0.00,6,Snow,286
2013-2-25,31,19,7,22,16,4,93,83,64,30.13,30.09,30.04,10,8,2,6,1,,0.00,6,Rain-Snow,103
2013-2-26,33,23,13,24,21,12,97,81,65,30.06,29.89,29.74,10,8,3,23,10,31,0.00,5,,47
2013-2-27,31,29,27,28,24,21,93,82,74,29.83,29.73,29.69,10,8,2,17,12,25,0.00,8,Rain-Snow,7
2013-2-28,30,26,20,24,19,12,86,71,60,30.16,30.00,29.84,10,10,5,16,10,24,0.00,8,Snow,7